[[{"header":{"parameterUnit":"m.s-1","parameterCategory":1,"la1":30.2991,"la2":30.254,"lo1":-89.0895,"lo2":-89.0444,"dy":0.0017,"dx":0.0017,"nx":28,"ny":28,"refTime":"2025-07-27T21:00:00:Z","depth":0,"parameterNumber":2,"parameterNumberName":"U-component_of_WINDS"},"data":[0,0,0,0,0,0,0,0,0,0,0,0,0,0,0,0,0,0,0,0,0,0,0,0,0,0,0,0,0,0,0,0,0,0,0,0,0,0,0,0,0,0,0,0,0,0,0,0,0,0,0,0,0,0,0,0,0,0,2.9278,2.928,0,2.9439,2.9441,2.9442,2.9451,2.945,2.9448,2.9446,2.961,2.9616,2.9622,0,0,0,0,0,0,0,0,0,0,0,0,0,2.8978,2.8983,2.9278,2.928,2.9282,2.9439,2.9441,2.9443,2.9452,2.9449,2.9447,2.9445,2.9608,2.9615,2.9623,0,0,0,0,0,0,0,0,0,0,0,0,0,2.912,2.8985,2.9278,2.9305,2.9309,2.9438,2.9441,2.9444,2.9452,2.9449,2.9447,2.9444,2.9606,2.9615,2.9624,2.9736,0,0,2.9652,2.9656,0,0,0,0,0,0,0,0,2.9112,2.9131,2.9299,2.9304,2.9308,2.9422,2.9395,2.9541,2.9453,2.9398,2.9446,2.9443,2.955,2.9563,2.96,2.9743,2.975,2.9652,2.9658,2.9662,2.9665,0,0,0,0,0,0,0,2.9102,2.9124,2.9342,2.9302,2.9307,2.9309,2.9326,2.9423,2.9488,2.9403,2.9404,2.9423,2.9552,2.9591,2.9604,2.9753,2.9652,2.966,2.9666,2.967,2.9995,2.9998,0,0,0,0,0,0,2.9087,2.9116,2.9337,2.9346,2.9201,2.9317,2.9336,2.9389,2.9487,2.9499,2.9425,2.9422,2.9577,2.9593,2.9609,2.9746,2.9662,2.967,2.9676,2.9992,2.9996,2.9999,0,0,0,0,0,0,2.9081,2.9107,2.933,2.9232,2.926,2.9325,2.9384,2.9393,2.9432,2.9503,2.9515,2.9453,2.9575,2.9597,2.9704,2.9751,2.9675,2.9683,2.9988,2.9993,2.9997,3.002,0,0,0,0,0,0,2.9072,2.9104,2.9148,2.9233,2.9265,2.9422,2.9387,2.9398,2.9448,2.9446,2.9533,2.9544,2.9575,2.969,2.9713,2.9763,2.969,2.9984,2.999,2.9996,3.0015,3.0024,3.0033,0,0,0,0,0,2.9061,2.9148,2.915,2.9176,2.9321,2.9425,2.9444,2.9477,2.9452,2.9496,2.9541,2.9541,2.9743,2.9701,2.9727,2.978,2.9981,2.9988,2.9995,3.0011,3.0023,3.0032,0,0,0,0,0,0,2.9067,2.9159,2.9163,2.928,2.9344,2.9426,2.9483,2.9489,2.9562,2.9557,2.9595,2.9615,2.9721,2.9761,2.9713,2.9893,2.9859,2.9872,2.9862,2.9874,2.9883,2.987,2.9698,0,0,0,0,0,2.9082,2.9159,2.9235,2.9331,2.9363,2.9417,2.9464,2.9484,2.9552,2.958,2.9633,2.9699,2.9777,2.9828,2.9904,3.0021,3.0039,3.007,3.0079,3.0086,3.0096,3.016,3.0174,3.0022,3.0022,3.0022,0,0,2.9113,2.9173,2.922,2.9334,2.9386,2.9464,2.944,2.9524,2.9582,2.9593,2.9697,2.9738,2.9815,2.9927,2.9979,2.9964,3.0142,3.0095,3.01,3.0107,3.0168,3.0183,3.0195,3.0027,3.0026,3.0025,0,0,2.921,2.9264,2.9349,2.9402,2.9482,2.9517,2.9537,2.9619,2.9646,2.9752,2.976,2.983,2.9964,3.0018,3.0063,3.0179,3.0182,3.0203,3.0249,3.031,3.0322,3.0333,3.0373,3.0387,3.0213,3.0213,3.0213,0,2.9239,2.9357,2.9392,2.9475,2.9525,2.9538,2.9623,2.9673,2.9773,2.9807,2.9789,2.9957,3.0009,3.0133,3.0161,3.0198,3.0221,3.0193,3.0318,3.0329,3.034,3.0378,3.0393,3.0215,3.0215,3.0215,3.0214,0,2.9388,2.947,2.9529,2.9625,2.9681,2.9766,2.9812,2.9865,2.988,2.9917,3.0023,3.0087,3.0175,3.0206,3.0222,3.0333,3.0321,3.031,3.0277,3.0355,3.0392,3.0407,3.0218,3.0217,3.0216,3.0216,0,0,2.9493,2.9607,2.9628,2.9671,2.9759,2.9823,2.9908,2.9994,3.0038,3.0107,3.0177,3.029,3.0281,3.0332,3.0354,3.0408,3.0494,3.039,3.0393,3.0406,3.0618,3.0624,3.0641,3.0497,3.05,3.0502,3.0611,0,2.9598,2.9749,2.9782,2.9911,2.9986,3.0,3.0073,3.0135,3.0172,3.0241,3.0281,3.036,3.0342,3.0373,3.0427,3.0472,3.0537,3.0465,3.0562,3.0565,3.0541,3.066,3.0668,3.0767,3.0626,3.0628,3.063,0,2.9741,2.9813,2.995,3.0027,3.006,3.0126,3.0207,3.0273,3.0343,3.0366,3.0422,3.0438,3.0526,3.0489,3.061,3.056,3.0602,3.063,3.0635,3.0644,3.0601,3.0671,3.08,3.0814,3.0653,3.0651,3.065,0,2.9802,2.9933,3.0031,3.0068,3.0161,3.0207,3.0248,3.0315,3.0365,3.0436,3.0468,3.0548,3.0592,3.0654,3.0691,3.0661,3.0808,3.0774,3.0828,3.0827,3.0858,3.0855,3.0993,3.0887,3.0887,3.0887,3.0886,0,2.9915,2.9998,3.0059,3.0119,3.0212,3.0249,3.034,3.0381,3.0441,3.0509,3.0526,3.0589,3.0635,3.0705,3.0734,3.0829,3.0849,3.0869,3.0876,3.0867,3.0864,3.0894,3.0887,3.0891,3.089,3.0889,3.0888,0,2.9998,3.0042,3.015,3.023,3.0252,3.0316,3.0384,3.0443,3.048,3.0566,3.0588,3.0646,3.0729,3.0772,3.0876,3.0896,3.1001,3.1005,3.0977,3.098,3.103,3.1024,3.1192,3.1215,3.1094,3.1096,3.1096,0,3.0066,3.013,3.0217,3.0263,3.0305,3.038,3.0431,3.047,3.0521,3.0606,3.0654,3.0738,3.0806,3.0938,3.0989,3.1068,3.1073,3.1126,3.1085,3.1073,3.1072,3.1067,3.1072,3.1132,3.1134,3.1134,3.1135,0,3.0183,3.0202,3.0274,3.0353,3.0413,3.0477,3.0541,3.0578,3.0628,3.0685,3.0769,3.0823,3.0928,3.101,3.1093,3.1135,3.1143,3.1148,3.1164,3.1155,3.1136,3.1145,3.0995,3.1144,3.1143,3.1142,3.1142,3.1141,3.026,3.0317,3.0386,3.0465,3.0517,3.0576,3.0635,3.0679,3.075,3.0839,3.0858,3.0947,3.1015,3.1127,3.1171,3.1241,3.123,3.1254,3.126,3.1265,3.1266,3.1126,3.1256,3.1256,3.1256,3.1256,3.1256,0,3.0376,3.0421,3.0493,3.0582,3.0644,3.0647,3.0717,3.0769,3.0847,3.091,3.0977,3.1073,3.1153,3.1211,3.1292,3.1337,3.1342,3.1357,3.1353,3.1362,3.1272,3.1249,3.135,3.135,3.135,3.135,3.135,3.135,3.0443,3.0539,3.0566,3.0687,3.0732,3.0819,3.0859,3.0913,3.0963,3.107,3.1136,3.1173,3.1234,3.1319,3.1392,3.1407,3.1436,3.1449,3.1464,3.1379,3.1369,3.1359,3.1337,3.1456,3.1456,3.1548,3.1549,3.155]},{"header":{"parameterUnit":"m.s-1","parameterCategory":1,"la1":30.2991,"la2":30.254,"lo1":-89.0895,"lo2":-89.0444,"dy":0.0017,"dx":0.0017,"nx":28,"ny":28,"refTime":"2025-07-27T21:00:00:Z","depth":0,"parameterNumber":3,"parameterNumberName":"V-component_of_WINDS"},"data":[0,0,0,0,0,0,0,0,0,0,0,0,0,0,0,0,0,0,0,0,0,0,0,0,0,0,0,0,0,0,0,0,0,0,0,0,0,0,0,0,0,0,0,0,0,0,0,0,0,0,0,0,0,0,0,0,0,0,2.6775,2.6775,0,2.6741,2.6741,2.674,2.6669,2.6668,2.6667,2.6665,2.6631,2.6632,2.6632,0,0,0,0,0,0,0,0,0,0,0,0,0,2.6778,2.6779,2.6775,2.6775,2.6774,2.6741,2.6741,2.674,2.667,2.6668,2.6666,2.6665,2.6631,2.6632,2.6632,0,0,0,0,0,0,0,0,0,0,0,0,0,2.6764,2.6779,2.6775,2.6735,2.6731,2.6741,2.6741,2.674,2.667,2.6668,2.6666,2.6664,2.6631,2.6631,2.6632,2.6679,0,0,2.6634,2.6634,0,0,0,0,0,0,0,0,2.6765,2.6764,2.6741,2.6738,2.6733,2.6707,2.6729,2.672,2.6671,2.6693,2.6665,2.6663,2.6658,2.6657,2.6655,2.6677,2.6676,2.6634,2.6634,2.6635,2.6635,0,0,0,0,0,0,0,2.6766,2.6765,2.6762,2.6741,2.6736,2.6719,2.6714,2.6727,2.6688,2.6691,2.6686,2.6683,2.6656,2.6654,2.6654,2.6675,2.6634,2.6635,2.6635,2.6635,2.6733,2.6735,0,0,0,0,0,0,2.6773,2.6766,2.6763,2.6761,2.6744,2.672,2.6715,2.6718,2.6688,2.6681,2.6685,2.668,2.6654,2.6653,2.6652,2.6704,2.6635,2.6635,2.6636,2.673,2.6733,2.6736,0,0,0,0,0,0,2.6773,2.6773,2.6764,2.6762,2.676,2.6722,2.6726,2.6718,2.6717,2.6683,2.6676,2.6691,2.6653,2.6651,2.6672,2.6702,2.6636,2.6636,2.6728,2.6731,2.6734,2.6808,0,0,0,0,0,0,2.6774,2.6774,2.6791,2.6763,2.676,2.6785,2.6728,2.6719,2.6718,2.6711,2.6687,2.668,2.6651,2.6672,2.6673,2.6701,2.6637,2.6725,2.6729,2.6733,2.6803,2.6814,2.6823,0,0,0,0,0,2.6774,2.6814,2.6793,2.6793,2.6781,2.6787,2.6785,2.675,2.6721,2.6738,2.6716,2.6681,2.6698,2.6675,2.6675,2.6704,2.6723,2.6728,2.6733,2.6799,2.6812,2.6823,0,0,0,0,0,0,2.6847,2.681,2.6785,2.6817,2.6806,2.6775,2.6796,2.6765,2.6762,2.6756,2.6713,2.6708,2.6735,2.6721,2.6696,2.6747,2.6705,2.671,2.6755,2.6767,2.6777,2.6779,2.6637,0,0,0,0,0,2.6867,2.6875,2.6842,2.6873,2.6869,2.6833,2.6835,2.6809,2.6795,2.679,2.6769,2.6758,2.676,2.6763,2.6763,2.6801,2.6794,2.6821,2.6831,2.6839,2.6844,2.6862,2.6873,2.6752,2.6752,2.6752,0,0,2.6908,2.6889,2.6896,2.6887,2.6875,2.6884,2.683,2.6842,2.6848,2.6792,2.681,2.6795,2.6779,2.6808,2.682,2.6798,2.6876,2.6846,2.6852,2.6853,2.6868,2.688,2.689,2.6755,2.6755,2.6754,0,0,2.6987,2.6974,2.6998,2.6987,2.6969,2.6945,2.6951,2.6925,2.6912,2.693,2.6887,2.6894,2.69,2.6889,2.6885,2.696,2.6927,2.6961,2.7013,2.703,2.704,2.7048,2.7074,2.7084,2.6966,2.6966,2.6967,0,2.7041,2.7053,2.7014,2.7029,2.7026,2.6975,2.6998,2.6989,2.6973,2.6972,2.6948,2.6953,2.6938,2.6964,2.6982,2.6981,2.6985,2.6964,2.7042,2.7049,2.7057,2.7081,2.709,2.6971,2.697,2.697,2.6969,0,2.7119,2.7128,2.7149,2.7134,2.7133,2.7153,2.7117,2.7121,2.7094,2.7073,2.7091,2.7072,2.7067,2.7071,2.7046,2.7093,2.708,2.7049,2.7006,2.7073,2.7095,2.7104,2.6977,2.6975,2.6974,2.6973,0,0,2.7244,2.7206,2.7215,2.7207,2.7183,2.7189,2.7206,2.72,2.7204,2.7195,2.7207,2.7212,2.7183,2.7178,2.7151,2.7167,2.7226,2.7134,2.7133,2.7151,2.7275,2.7298,2.7309,2.7204,2.7206,2.7207,2.7276,0,2.7317,2.7343,2.7308,2.7342,2.7349,2.73,2.7314,2.7301,2.7282,2.7285,2.7263,2.7267,2.7229,2.7225,2.7239,2.7216,2.725,2.7211,2.7215,2.7216,2.722,2.7321,2.7345,2.7411,2.7285,2.7286,2.7287,0,2.7406,2.74,2.7434,2.7407,2.7409,2.7422,2.7414,2.7418,2.7402,2.7386,2.738,2.7348,2.7362,2.732,2.7338,2.7312,2.7311,2.7301,2.7302,2.7301,2.7255,2.7322,2.7432,2.7441,2.73,2.7299,2.7298,0,2.7493,2.7493,2.7513,2.7508,2.7477,2.7488,2.7476,2.7457,2.7456,2.7449,2.7447,2.7443,2.744,2.7436,2.7403,2.7376,2.7425,2.7381,2.7412,2.7413,2.7424,2.7424,2.7535,2.7425,2.7425,2.7425,2.7424,0,2.7578,2.7601,2.7551,2.7564,2.7587,2.7547,2.7572,2.7554,2.7538,2.7546,2.7504,2.7512,2.7468,2.7471,2.7446,2.7464,2.7463,2.745,2.7443,2.7454,2.7455,2.7453,2.7447,2.7427,2.7427,2.7426,2.7426,0,2.7679,2.7647,2.7665,2.7634,2.7627,2.7646,2.7619,2.7629,2.7606,2.7617,2.7617,2.7581,2.7583,2.755,2.7545,2.7527,2.7556,2.7541,2.7562,2.7557,2.759,2.7587,2.7702,2.7715,2.7598,2.76,2.76,0,2.7735,2.7751,2.7722,2.7724,2.7713,2.7717,2.7715,2.7676,2.7676,2.7659,2.767,2.7669,2.7665,2.7669,2.7643,2.7639,2.7623,2.7664,2.7622,2.7632,2.7622,2.7621,2.7622,2.7672,2.7674,2.7675,2.7676,0,2.7838,2.7821,2.782,2.7813,2.7812,2.7805,2.7796,2.78,2.7757,2.7759,2.776,2.7757,2.7751,2.775,2.774,2.7727,2.7694,2.7689,2.7696,2.7707,2.7718,2.7711,2.7585,2.7687,2.7686,2.7685,2.7684,2.7684,2.7917,2.7929,2.7909,2.791,2.7898,2.789,2.7897,2.7875,2.7875,2.7867,2.7844,2.7849,2.7831,2.7815,2.7805,2.7807,2.7787,2.7797,2.78,2.7803,2.7808,2.7718,2.7806,2.7805,2.7805,2.7805,2.7804,0,2.8017,2.8002,2.8002,2.799,2.799,2.7959,2.7946,2.7948,2.7953,2.7939,2.7936,2.7936,2.7934,2.7907,2.7902,2.7909,2.7894,2.7909,2.7907,2.7905,2.7827,2.7821,2.7921,2.7921,2.7921,2.7921,2.7921,2.7921,2.8069,2.8086,2.8067,2.8078,2.8063,2.8067,2.8062,2.8054,2.8043,2.8045,2.8043,2.8025,2.8006,2.7998,2.7995,2.7987,2.7987,2.8007,2.7994,2.7922,2.791,2.79,2.7894,2.8007,2.8007,2.8071,2.8071,2.8072]}]]